Chehalis, WA

9:03 AM PST on December 04, 2016 (GMT -0800)
Chehalis-Centralia

Weather History for KCLS - January, 2015

Change the Weather History Date:

Thursday, January 8, 2015

  Actual Average (KOLM) Record (KOLM)
Temperature  
Mean Temperature 40 °F 39 °F  
Max Temperature 42 °F 45 °F 55 °F (1953)
Min Temperature 39 °F 34 °F 9 °F (1974)
Degree Days  
Heating Degree Days 24 26  
Month to date heating degree days 208  
Since 1 July heating degree days 2478  
Cooling Degree Days 0 0  
Month to date cooling degree days 0  
Year to date cooling degree days 0  
Moisture  
Dew Point 41 °F    
Average Humidity 99    
Maximum Humidity 100    
Minimum Humidity 93    
Precipitation  
Precipitation 0.00 in 0.26 in 1.20 in (1990)
Month to date precipitation 2.04  
Year to date precipitation 2.04  
Sea Level Pressure  
Sea Level Pressure 30.16 in    
Wind  
Wind Speed 6 mph (NE)    
Max Wind Speed 10 mph    
Max Gust Speed -    
Visibility 8 miles    
Events      
T = Trace of Precipitation, MM = Missing Value Source: NWS Daily Summary

Daily Weather History Graph

Daily Weather History Graph

Search for Another Location

Airport or City:

Trip Planner

Search our weather history database for the weather conditions in past years. The results will help you decide how hot, cold, wet, or windy it might be!

Date:

Astronomy

Jan. 08, 2015 Rise Set
Actual Time 7:55 AM PST 4:42 PM PST
Civil Twilight 7:20 AM PST 5:16 PM PST
Nautical Twilight 6:42 AM PST 5:54 PM PST
Astronomical Twilight 6:06 AM PST 6:31 PM PST
Moon 8:41 PM PST (1/8) 9:30 AM PST (1/8)
Length of Visible Light 9h 55m
Length of Day
8h 46m
Waning Gibbous, 88% of the Moon is Illuminated
Jan 8
Waning Gibbous
Jan 13
Last Quarter
Jan 20
New
Jan 26
First Quarter
Feb 3
Full

Hourly Weather History & Observations

Time (PST) Temp. Windchill Dew Point Humidity Pressure Visibility Wind Dir Wind Speed Gust Speed Precip Events Conditions
12:15 AM 41.0 °F 35.8 °F 41.0 °F 100% 30.23 in 4.0 mi NE 8.1 mph - N/A   Overcast
12:35 AM 41.0 °F 37.1 °F 41.0 °F 100% 30.23 in 1.5 mi NE 5.8 mph - N/A   Overcast
12:55 AM 41.0 °F 38.0 °F 41.0 °F 100% 30.22 in 1.2 mi NE 4.6 mph - N/A   Overcast
1:15 AM 41.0 °F 37.1 °F 41.0 °F 100% 30.23 in 1.5 mi NNE 5.8 mph - N/A   Overcast
1:35 AM 41.0 °F 38.0 °F 41.0 °F 100% 30.22 in 0.8 mi NE 4.6 mph - N/A   Overcast
1:55 AM 41.0 °F 37.1 °F 41.0 °F 100% 30.22 in 1.5 mi NE 5.8 mph - N/A   Overcast
2:15 AM 41.0 °F 38.0 °F 41.0 °F 100% 30.22 in 8.0 mi NE 4.6 mph - N/A   Overcast
2:35 AM 41.0 °F 39.0 °F 41.0 °F 100% 30.21 in 10.0 mi NE 3.5 mph - N/A   Overcast
2:55 AM 41.0 °F 37.1 °F 41.0 °F 100% 30.21 in 9.0 mi NE 5.8 mph - N/A   Overcast
3:15 AM 42.8 °F 38.6 °F 42.8 °F 100% 30.20 in 10.0 mi NNE 6.9 mph - N/A   Overcast
3:35 AM 42.8 °F 37.0 °F 42.8 °F 100% 30.20 in 10.0 mi NNE 10.4 mph - N/A   Overcast
3:55 AM 41.0 °F 35.2 °F 41.0 °F 100% 30.19 in 10.0 mi NNE 9.2 mph - N/A   Overcast
4:15 AM 41.0 °F 35.2 °F 41.0 °F 100% 30.19 in 10.0 mi NNE 9.2 mph - N/A   Overcast
4:35 AM 41.0 °F 34.7 °F 41.0 °F 100% 30.18 in 10.0 mi NNE 10.4 mph - N/A   Overcast
4:55 AM 41.0 °F 35.2 °F 41.0 °F 100% 30.18 in 10.0 mi NNE 9.2 mph - N/A   Overcast
5:15 AM 41.0 °F 36.4 °F 41.0 °F 100% 30.17 in 10.0 mi NNE 6.9 mph - N/A   Overcast
5:35 AM 41.0 °F 35.8 °F 41.0 °F 100% 30.18 in 10.0 mi NE 8.1 mph - N/A   Overcast
5:55 AM 41.0 °F 34.7 °F 41.0 °F 100% 30.17 in 10.0 mi NNE 10.4 mph - N/A   Overcast
6:15 AM 41.0 °F 35.8 °F 41.0 °F 100% 30.18 in 10.0 mi NNE 8.1 mph - N/A   Overcast
6:35 AM 41.0 °F 35.2 °F 41.0 °F 100% 30.17 in 10.0 mi NE 9.2 mph - N/A   Overcast
6:55 AM 41.0 °F 37.1 °F 41.0 °F 100% 30.17 in 10.0 mi NNE 5.8 mph - N/A   Overcast
7:15 AM 41.0 °F 35.2 °F 41.0 °F 100% 30.17 in 10.0 mi NE 9.2 mph - N/A   Overcast
7:35 AM 41.0 °F 35.8 °F 41.0 °F 100% 30.17 in 10.0 mi NNE 8.1 mph - N/A   Overcast
7:55 AM 41.0 °F 36.4 °F 41.0 °F 100% 30.18 in 10.0 mi NNE 6.9 mph - N/A   Overcast
8:15 AM 41.0 °F 36.4 °F 41.0 °F 100% 30.18 in 10.0 mi NNE 6.9 mph - N/A   Overcast
8:35 AM 41.0 °F 36.4 °F 41.0 °F 100% 30.18 in 10.0 mi NNE 6.9 mph - N/A   Overcast
8:55 AM 41.0 °F 37.1 °F 41.0 °F 100% 30.18 in 10.0 mi NNE 5.8 mph - N/A   Overcast
9:15 AM 41.0 °F 38.0 °F 41.0 °F 100% 30.18 in 10.0 mi ENE 4.6 mph - N/A   Overcast
9:35 AM 41.0 °F 38.0 °F 41.0 °F 100% 30.18 in 10.0 mi Variable 4.6 mph - N/A   Overcast
9:55 AM 41.0 °F - 41.0 °F 100% 30.18 in 8.0 mi Calm Calm - N/A   Overcast
10:15 AM 41.0 °F 38.0 °F 41.0 °F 100% 30.19 in 10.0 mi North 4.6 mph - N/A   Overcast
10:35 AM 39.2 °F 37.0 °F 39.2 °F 100% 30.18 in 10.0 mi NNE 3.5 mph - N/A   Overcast
10:55 AM 41.0 °F 36.4 °F 39.2 °F 93% 30.18 in 10.0 mi NNE 6.9 mph - N/A   Overcast
11:15 AM 41.0 °F 38.0 °F 39.2 °F 93% 30.17 in 10.0 mi NNE 4.6 mph - N/A   Overcast
11:35 AM 41.0 °F 36.4 °F 41.0 °F 100% 30.17 in 10.0 mi NNE 6.9 mph - N/A   Overcast
11:55 AM 41.0 °F 37.1 °F 41.0 °F 100% 30.16 in 10.0 mi NNE 5.8 mph - N/A   Overcast
12:15 PM 41.0 °F 37.1 °F 41.0 °F 100% 30.15 in 10.0 mi North 5.8 mph - N/A   Overcast
12:35 PM 41.0 °F 35.8 °F 41.0 °F 100% 30.14 in 10.0 mi NE 8.1 mph - N/A   Overcast
12:55 PM 42.8 °F 38.6 °F 41.0 °F 93% 30.14 in 10.0 mi NNE 6.9 mph - N/A   Overcast
1:15 PM 42.8 °F 37.5 °F 41.0 °F 93% 30.13 in 10.0 mi NNE 9.2 mph - N/A   Overcast
1:35 PM 42.8 °F 39.3 °F 41.0 °F 93% 30.13 in 10.0 mi NNE 5.8 mph - N/A   Overcast
1:55 PM 42.8 °F 40.1 °F 41.0 °F 93% 30.13 in 10.0 mi North 4.6 mph - N/A   Overcast
2:15 PM 42.8 °F 39.3 °F 41.0 °F 93% 30.13 in 10.0 mi North 5.8 mph - N/A   Overcast
2:35 PM 42.8 °F 39.3 °F 41.0 °F 93% 30.12 in 10.0 mi North 5.8 mph - N/A   Overcast
2:55 PM 42.8 °F 40.1 °F 41.0 °F 93% 30.13 in 10.0 mi NNE 4.6 mph - N/A   Overcast
3:15 PM 42.8 °F 38.6 °F 42.8 °F 100% 30.12 in 10.0 mi NNE 6.9 mph - N/A   Overcast
3:35 PM 42.8 °F 41.1 °F 41.0 °F 93% 30.12 in 10.0 mi North 3.5 mph - N/A   Overcast
3:55 PM 42.8 °F 40.1 °F 41.0 °F 93% 30.13 in 10.0 mi ENE 4.6 mph - N/A   Overcast
4:15 PM 42.8 °F 38.6 °F 41.0 °F 93% 30.12 in 10.0 mi NE 6.9 mph - N/A   Overcast
4:35 PM 42.8 °F 39.3 °F 41.0 °F 93% 30.12 in 10.0 mi NE 5.8 mph - N/A   Overcast
4:55 PM 42.8 °F - 41.0 °F 93% 30.12 in 10.0 mi Calm Calm - N/A   Overcast
5:15 PM 42.8 °F 38.6 °F 41.0 °F 93% 30.11 in 10.0 mi NE 6.9 mph - N/A   Overcast
5:35 PM 41.0 °F 38.0 °F 41.0 °F 100% 30.11 in 10.0 mi NE 4.6 mph - N/A   Overcast
5:55 PM 41.0 °F 39.0 °F 41.0 °F 100% 30.12 in 10.0 mi NE 3.5 mph - N/A   Overcast
6:15 PM 41.0 °F - 41.0 °F 100% 30.11 in 10.0 mi Calm Calm - N/A   Overcast
6:35 PM 41.0 °F - 41.0 °F 100% 30.12 in 10.0 mi Calm Calm - N/A   Overcast
6:55 PM 41.0 °F - 41.0 °F 100% 30.12 in 10.0 mi Calm Calm - N/A   Overcast
7:15 PM 41.0 °F - 41.0 °F 100% 30.12 in 8.0 mi Calm Calm - N/A   Overcast
7:35 PM 41.0 °F - 41.0 °F 100% 30.12 in 9.0 mi Calm Calm - N/A   Overcast
7:55 PM 41.0 °F - 41.0 °F 100% 30.13 in 6.0 mi Calm Calm - N/A   Overcast
8:15 PM 41.0 °F - 41.0 °F 100% 30.13 in 7.0 mi Calm Calm - N/A   Overcast
8:35 PM 41.0 °F 38.0 °F 41.0 °F 100% 30.13 in 9.0 mi East 4.6 mph - N/A   Overcast
8:55 PM 41.0 °F 39.0 °F 41.0 °F 100% 30.13 in 5.0 mi East 3.5 mph - N/A   Overcast
9:15 PM 39.2 °F 37.0 °F 39.2 °F 100% 30.13 in 3.0 mi East 3.5 mph - N/A   Overcast
9:35 PM 39.2 °F - 39.2 °F 100% 30.14 in 2.0 mi Calm Calm - N/A   Overcast
9:55 PM 41.0 °F - 41.0 °F 100% 30.14 in 1.8 mi Calm Calm - N/A   Overcast
10:15 PM 39.2 °F - 39.2 °F 100% 30.13 in 2.0 mi Calm Calm - N/A   Overcast
10:35 PM 39.2 °F - 39.2 °F 100% 30.14 in 2.5 mi Calm Calm - N/A   Overcast
10:55 PM 39.2 °F - 39.2 °F 100% 30.13 in 2.5 mi Calm Calm - N/A   Overcast
11:15 PM 39.2 °F - 39.2 °F 100% 30.13 in 3.0 mi Calm Calm - N/A   Overcast
11:35 PM 39.2 °F 37.0 °F 39.2 °F 100% 30.13 in 3.0 mi SW 3.5 mph - N/A   Overcast
11:55 PM 39.2 °F 35.9 °F 39.2 °F 100% 30.13 in 1.0 mi South 4.6 mph - N/A   Overcast